Location: Buckland
(65.9785°N, 161.1281°W)
Time: 13:44:25
(UTC+00:00)

SPROUT - Pass Details

Date: 25 January 2021
Orbit: 597 x 609 km, 97.9° (Epoch: 05 March)

Event Time Altitude Azimuth Distance (km) Brightness Sun altitude
Exits shadow 03:40:42 - 21° (NNE) 2,432 ? -9.8°
Reaches altitude 10° 03:42:22 10° 6° (N) 1,981 ? -10.0°
Maximum altitude 03:44:41 15° 333° (NNW) 1,699 ? -10.2°
Drops below altitude 10° 03:47:01 10° 300° (WNW) 1,980 ? -10.4°
Sets 03:50:03 0° 277° (W) 2,883 ? -10.7°
